Location: Unspecified
(0.0000°N, 0.0000°E)
Time: 20:35:47
(UTC+00:00)

deb Explorer IX - All Passes

Search period start: 20 July 2017 00:00
Search period end: 30 July 2017 00:00
Orbit: 535 x 1129 km, 38.8° (Epoch: 19 July)

Date Brightness Start Highest point End Pass type
(mag) Time Alt. Az. Time Alt. Az. Time Alt. Az.
20 Jul - 04:57:14 10° S 05:01:01 22° SE 05:05:13 10° E visible
20 Jul - 06:42:49 10° WSW 06:48:01 53° NW 06:54:11 10° NE daylight
20 Jul - 15:56:18 10° N 15:59:10 13° NNE 16:01:53 10° ENE daylight
20 Jul - 17:40:44 10° NW 17:47:10 67° NE 17:52:36 10° ESE daylight
20 Jul - 19:30:26 10° W 19:34:10 18° SW 19:37:35 10° S visible
21 Jul - 04:37:24 10° S 04:41:08 22° SE 04:45:19 10° E visible
21 Jul - 06:23:08 10° WSW 06:28:08 48° NW 06:34:03 10° NE daylight
21 Jul - 15:35:46 10° N 15:39:15 14° NE 15:42:33 10° ENE daylight
21 Jul - 17:20:36 10° NW 17:27:15 72° NE 17:32:51 10° SE daylight
21 Jul - 19:10:32 10° W 19:14:17 17° SW 19:17:43 10° S visible
22 Jul - 04:17:34 10° S 04:21:17 23° SE 04:25:25 10° E visible
22 Jul - 06:03:27 10° WSW 06:08:15 44° NW 06:13:54 10° NNE daylight
22 Jul - 15:15:20 10° N 15:19:20 16° NE 15:23:06 10° ENE daylight
22 Jul - 17:00:29 10° NW 17:07:18 77° NE 17:13:06 10° SE daylight
22 Jul - 18:50:37 10° W 18:54:23 17° SW 18:57:49 10° S visible
23 Jul - 03:57:45 10° SSW 04:01:25 24° SE 04:05:31 10° E visible
23 Jul - 05:43:48 10° WSW 05:48:23 40° NW 05:53:46 10° NNE daylight
23 Jul - 14:54:57 10° N 14:59:23 17° NE 15:03:33 10° ENE daylight
23 Jul - 16:40:21 10° NW 16:47:20 82° NE 16:53:18 10° SE daylight
23 Jul - 18:30:43 10° W 18:34:28 16° SW 18:37:55 10° S visible
24 Jul - 03:37:55 10° SSW 03:41:34 25° SE 03:45:37 10° E visible
24 Jul - 05:24:09 10° WSW 05:28:31 36° NW 05:33:37 10° NNE visible
24 Jul - 14:34:37 10° N 14:39:25 19° NE 14:43:57 10° ENE daylight
24 Jul - 16:20:14 10° NW 16:27:20 87° NE 16:33:29 10° SE daylight
24 Jul - 18:10:48 10° WSW 18:14:32 16° SW 18:17:59 10° S daylight
25 Jul - 03:18:05 10° SSW 03:21:43 26° SE 03:25:44 10° E visible
25 Jul - 05:04:30 10° WSW 05:08:40 32° NW 05:13:28 10° NNE visible
25 Jul - 14:14:20 10° N 14:19:26 20° NE 14:24:17 10° E daylight
25 Jul - 16:00:07 10° NW 16:07:20 88° SW 16:13:38 10° SE daylight
25 Jul - 17:50:52 10° WSW 17:54:35 16° SW 17:58:03 10° S daylight
26 Jul - 02:58:15 10° SSW 03:01:53 28° SE 03:05:52 10° ENE visible
26 Jul - 04:44:53 10° W 04:48:50 29° NW 04:53:19 10° NNE visible
26 Jul - 13:54:03 10° N 13:59:26 21° NE 14:04:35 10° E daylight
26 Jul - 15:40:00 10° NW 15:47:19 84° SW 15:53:46 10° SE daylight
26 Jul - 17:30:57 10° WSW 17:34:38 15° SW 17:38:04 10° S daylight
27 Jul - 02:38:24 10° SSW 02:42:02 29° SE 02:46:01 10° ENE visible
27 Jul - 04:25:15 10° W 04:28:59 26° NW 04:33:10 10° NNE visible
27 Jul - 13:33:48 10° NNW 13:39:25 23° NE 13:44:49 10° E daylight
27 Jul - 15:19:53 10° NW 15:27:15 80° SW 15:33:53 10° SE daylight
27 Jul - 17:11:03 10° WSW 17:14:40 15° SW 17:18:04 10° S daylight
28 Jul - 02:18:33 10° SSW 02:22:12 31° SE 02:26:09 10° ENE night (unlit)
28 Jul - 04:05:40 10° W 04:09:09 23° NW 04:13:01 10° NNE visible
28 Jul - 13:13:35 10° NNW 13:19:23 24° NE 13:25:01 10° E daylight
28 Jul - 14:59:47 10° NW 15:07:12 76° SW 15:13:57 10° SE daylight
28 Jul - 16:51:09 10° WSW 16:54:41 14° SW 16:58:02 10° S daylight
29 Jul - 01:58:41 10° SSW 02:02:22 34° SE 02:06:18 10° ENE night (unlit)
29 Jul - 03:46:04 10° W 03:49:19 21° NW 03:52:51 10° NNE visible
29 Jul - 12:53:23 10° NNW 12:59:20 26° NE 13:05:11 10° E daylight
29 Jul - 14:39:42 10° NW 14:47:08 72° SW 14:54:00 10° SE daylight
29 Jul - 16:31:16 10° WSW 16:34:41 14° SW 16:37:58 10° S daylight
